STARLINK-1144, 44933

Orbit data source: Space-Track

STARLINK-1144, 44933 is a payload satellite owned by SpaceX/Seattle (US) in LEO that was launched on Tue, 07 Jan 2020 UTC via an FALCON 9 launch vehicle from the Air Force Eastern Test Range (AFETR). Payload-class satellites include a variety of spacecraft equipped with specific instruments for various scientific and technological missions. These include communications satellites like Starlink; space stations such as the ISS; scientific satellites like the Hubble; Earth observation satellites from companies like Planet Labs, Umbra, and HawkEye 360; GPS; miniature CubeSats for education and research; and military/defense satellites.

Loading next visibility...
Identifier
44933, 2020-001V
Orbit
LEO
Country
Flag of USUS
Related business
Manufacturer
SpaceX/Seattle
Mission
Partially operational Commercial Communications
Bus & Motor
STARLINK, Unknown motor
Mass
260 kg wet, ~248 kg dry
Launch date (UTC)
2020-01-07 (6 years ago)
Launch vehicle
FALCON 9
Launch site
Air Force Eastern Test Range (AFETR)
Object type
Payload
Rocket body
Debris
Shape & HBR
Box + 1 Pan, 10.1 m
Radar Cross Section
13.562 m², Large (>1 m²)

Expand to show TLE details & history
Last TLE update: 17 hours ago

TLE from 17 hours ago
0 STARLINK-1144
1 44933U 20001V   25288.00002315  .00116503  00000-0  16278-2 0  9994
2 44933  53.0442 221.5446 0012697  37.2735  87.8155 15.55916526  5889
Epoch: 2025-10-15T00:00Z
TLE epoch observation values (Epoch: 2025-10-15T00:00:02.000Z)
Latitude
40.87894°
Longitude
-22.60371°
Altitude
402.931 km
Speed
7.674 km/s
True Right ascension
00h 04m 44s
True Declination
40° 41' 60"
Sunlit
Object was in full shadow at epoch
Visualization orbit readout
Latitude
Unknown
Longitude
Unknown
Altitude
Unknown
Speed
Unknown
Apparent Right ascension
Unknown
Apparent Declination
Unknown
Sunlit
N/A
Visualization observer readout
Local Sidereal Time
11:52:03
Azimuth
Unknown
Elevation
Unknown
Doppler factor
Unknown
Orbital elements
Apogee altitude
408.374 km
Perigee altitude
391.162 km
Semi-major axis
6,777.905 km
Eccentricity
0.00127
Inclination
53.0442°
RAAN
221.5446°
Arg. of periapsis
37.2735°
True anomaly
87.9609°
Mean anomaly
87.8155°
Eccentric anomaly
87.8882°
Mean motion
3.88956 °/min
Orbital period
92.56 mins
BSTAR
0.0016278
Loading maneuver chart data...
Computing Atmospheric mass density...

Documentation

Showing up to 5 results
|